Retour au catalogue

PHISAT 2

ActifScienceSSO
NORAD 60470·PAYLOAD·🇬🇧 United Kingdom

Lancé Aug 16, 2024 depuis Vandenberg Space Force Base

Loading…

Prochains Passages (prochaines 24 heures)

TLE

FraisSource: Space-Track

Époque: Sep 13, 2026, 23:09 UTC

1 60470U 24149C   26256.96516238  .00005834  00000-0  19063-3 0  9990
2 60470  97.3697 335.7258 0000318  19.4357 340.6897 15.32121848115586

Suivez PHISAT 2 en temps réel avec AllMySat

Download on the App Store